EA3GYL La Torregassa ES current weather conditions

sailwx.info

Wind from 095 at 1 knots gusting 6

Air temperature 14.4° C
Dewpoint 9.5° C

Last reported at 2015-Mar-28 02:50 UTC.
Time now 2015-Mar-28 03:59 UTC

Location: N 41°17' E 001°31'.
View on Google Maps.

See reports from other nearby stations

  
Tides and Currents Weather Stations Pressure Air Temp Water Temp Dewpoint Dewpoint Depression Visibility Wind Speed Wind Dir Waves Ship Positions
date/time (UTC)wind fromknots sea level pressurealtimeterstation pressurevisibilityair tempwater tempwave heightnotes
2015-Mar-28 02:50 095 1 gusting 6 14.4
2015-Mar-28 02:40 057 0 gusting 5 13.9
2015-Mar-28 02:30 048 0 gusting 2 13.3
2015-Mar-28 02:20 079 1 gusting 4 13.9
2015-Mar-28 02:10 040 1 gusting 6 13.9
2015-Mar-28 02:00 069 1 gusting 5 14.4
2015-Mar-28 01:50 094 1 gusting 7 13.9
2015-Mar-28 01:40 037 1 gusting 3 13.3
2015-Mar-28 01:30 089 1 gusting 4 13.3
2015-Mar-28 01:20 142 3 gusting 8 14.4
2015-Mar-28 01:10 205 2 gusting 10 15.0
2015-Mar-28 01:00 199 2 gusting 6 15.6
2015-Mar-28 00:50 137 1 gusting 7 15.6
2015-Mar-28 00:40 082 4 gusting 12 15.6
2015-Mar-28 00:30 144 3 gusting 12 15.6
2015-Mar-28 00:20 039 6 gusting 14 16.1
2015-Mar-28 00:10 322 9 gusting 24 16.1
2015-Mar-28 00:00 320 10 gusting 22 15.6
2015-Mar-27 23:50 322 10 gusting 19 15.6
2015-Mar-27 23:40 314 9 gusting 19 15.6
2015-Mar-27 23:30 309 10 gusting 19 15.6
2015-Mar-27 23:20 306 11 gusting 22 16.1
2015-Mar-27 23:10 305 10 gusting 23 16.1
2015-Mar-27 23:00 313 12 gusting 25 16.1
2015-Mar-27 22:50 303 12 gusting 26 16.1
2015-Mar-27 22:40 302 11 gusting 21 16.1
2015-Mar-27 22:30 310 11 gusting 20 16.1
2015-Mar-27 22:20 306 8 gusting 23 16.1
2015-Mar-27 22:10 309 5 gusting 19 16.1
2015-Mar-27 22:00 312 6 gusting 17 16.1
2015-Mar-27 21:50 309 8 gusting 19 16.7
2015-Mar-27 21:40 309 6 gusting 22 16.7
2015-Mar-27 21:30 313 7 gusting 16 16.7
2015-Mar-27 21:20 314 6 gusting 15 16.7
2015-Mar-27 21:10 312 7 gusting 14 16.7
2015-Mar-27 21:00 309 8 gusting 17 17.2
2015-Mar-27 20:50 306 7 gusting 19 17.2
2015-Mar-27 20:40 312 6 gusting 16 17.2
2015-Mar-27 20:30 307 6 gusting 14 17.2
2015-Mar-27 20:20 311 8 gusting 14 17.8
2015-Mar-27 20:10 290 9 gusting 20 17.8
2015-Mar-27 20:00 281 6 gusting 17 17.8
2015-Mar-27 19:50 267 4 gusting 12 16.7
2015-Mar-27 19:40 350 1 gusting 11 14.4
2015-Mar-27 19:30 046 2 gusting 6 13.3
2015-Mar-27 19:20 068 2 gusting 5 13.9
2015-Mar-27 19:10 058 2 gusting 5 13.3
2015-Mar-27 19:00 051 0 gusting 5 13.3
2015-Mar-27 18:50 13.9
2015-Mar-27 18:40 14.4
2015-Mar-27 18:30 14.4
2015-Mar-27 18:20 042 0 gusting 0 15.0
2015-Mar-27 18:10 052 15.6
2015-Mar-27 18:00 063 0 gusting 1 15.6
2015-Mar-27 17:50 079 0 gusting 1 16.1
2015-Mar-27 17:40 090 0 gusting 2 16.7
2015-Mar-27 17:30 072 1 gusting 5 17.2
2015-Mar-27 17:20 093 1 gusting 4 17.8
2015-Mar-27 17:10 104 2 gusting 4 17.8
2015-Mar-27 17:00 109 1 gusting 4 18.3
2015-Mar-27 16:50 121 1 gusting 3 18.3
2015-Mar-27 16:40 113 2 gusting 5 18.3
2015-Mar-27 16:30 094 2 gusting 5 18.3
2015-Mar-27 16:20 110 3 gusting 6 18.3
2015-Mar-27 16:10 100 3 gusting 6 18.3
2015-Mar-27 16:00 102 4 gusting 8 17.8
2015-Mar-27 15:50 107 4 gusting 8 18.3
2015-Mar-27 15:40 112 5 gusting 10 18.3
2015-Mar-27 15:30 111 5 gusting 10 19.4
2015-Mar-27 15:20 112 6 gusting 10 19.4
2015-Mar-27 15:10 085 3 gusting 12 20.6
2015-Mar-27 15:00 216 2 gusting 6 22.8
2015-Mar-27 12:40 261 6 gusting 13 19.4
2015-Mar-27 12:30 270 6 gusting 13 19.4
2015-Mar-27 12:20 265 6 gusting 15 18.9
2015-Mar-27 12:10 262 5 gusting 12 18.9
2015-Mar-27 12:00 266 4 gusting 12 18.9
2015-Mar-27 11:50 284 6 gusting 12 18.3
2015-Mar-27 11:40 283 6 gusting 12 18.3
2015-Mar-27 11:30 286 6 gusting 13 18.3
2015-Mar-27 11:20 282 5 gusting 12 18.3
2015-Mar-27 11:10 292 6 gusting 11 18.3
2015-Mar-27 11:00 284 5 gusting 12 17.8
2015-Mar-27 10:50 310 4 gusting 10 18.3
2015-Mar-27 10:40 352 0 gusting 9 17.8
2015-Mar-27 10:30 071 0 gusting 3 17.8
2015-Mar-27 10:20 025 2 gusting 5 17.2
2015-Mar-27 10:10 320 2 gusting 6 17.2
2015-Mar-27 10:00 338 3 gusting 9 16.7
2015-Mar-27 09:50 284 2 gusting 9 16.1
2015-Mar-27 09:40 317 0 gusting 9 16.1
2015-Mar-27 09:30 315 0 gusting 2 15.6
2015-Mar-27 09:20 265 1 gusting 5 15.0
2015-Mar-27 09:10 215 1 gusting 3 15.0
2015-Mar-27 09:00 155 1 gusting 4 14.4
2015-Mar-27 08:50 121 1 gusting 2 13.9
2015-Mar-27 08:40 123 1 gusting 4 13.9
2015-Mar-27 08:30 115 1 gusting 3 13.3
2015-Mar-27 08:20 103 2 gusting 5 12.8
2015-Mar-27 08:10 070 1 gusting 5 12.2
2015-Mar-27 08:00 086 0 gusting 4 12.8
2015-Mar-27 07:50 099 1 gusting 3 12.8
2015-Mar-27 07:40 086 1 gusting 4 12.2
2015-Mar-27 07:30 295 1 gusting 6 12.2
2015-Mar-27 07:20 163 1 gusting 3 11.7
2015-Mar-27 07:10 289 3 gusting 6 12.2
2015-Mar-27 07:00 315 4 gusting 13 11.7
2015-Mar-27 06:50 311 4 gusting 8 11.7
2015-Mar-27 06:40 303 4 gusting 13 11.7
2015-Mar-27 06:30 290 4 gusting 9 11.7
2015-Mar-27 06:20 290 4 gusting 10 11.7
2015-Mar-27 06:10 272 4 gusting 8 11.1
2015-Mar-27 06:00 287 4 gusting 11 11.1
2015-Mar-27 05:50 288 5 gusting 9 11.1
2015-Mar-27 05:40 290 6 gusting 13 11.7
2015-Mar-27 05:30 307 4 gusting 14 11.1
2015-Mar-27 05:20 303 2 gusting 12 11.1
2015-Mar-27 05:10 308 3 gusting 7 11.1
2015-Mar-27 05:00 269 3 gusting 9 11.1
2015-Mar-27 04:50 271 4 gusting 8 11.7
2015-Mar-27 04:40 293 2 gusting 12 11.7
2015-Mar-27 04:30 317 1 gusting 9 11.7
2015-Mar-27 04:20 341 2 gusting 6 11.1
2015-Mar-27 04:10 324 3 gusting 9 11.7
2015-Mar-27 04:00 329 5 gusting 14 11.7
2015-Mar-27 03:50 318 3 gusting 13 11.1
2015-Mar-27 03:40 321 0 gusting 4 9.4
2015-Mar-27 03:30 031 0 gusting 2 9.4
2015-Mar-27 03:20 344 1 gusting 6 10.6
2015-Mar-27 03:10 315 0 gusting 6 10.6
2015-Mar-27 03:00 10.0
2015-Mar-27 02:50 226 0 gusting 0 10.6
2015-Mar-27 02:40 318 2 gusting 4 11.7
2015-Mar-27 02:30 304 3 gusting 8 12.2
2015-Mar-27 02:20 312 1 gusting 8 11.7
2015-Mar-27 02:10 079 1 gusting 6 11.1
2015-Mar-27 02:00 307 1 gusting 13 12.2
2015-Mar-27 01:50 161 1 gusting 5 11.7
2015-Mar-27 01:40 225 2 gusting 8 12.2
2015-Mar-27 01:30 141 2 gusting 13 12.2
2015-Mar-27 01:20 216 3 gusting 13 12.2
2015-Mar-27 01:10 335 4 gusting 12 12.2
2015-Mar-27 01:00 007 4 gusting 14 12.2
2015-Mar-27 00:50 002 5 gusting 13 12.2
2015-Mar-27 00:40 347 5 gusting 16 12.8
2015-Mar-27 00:30 017 4 gusting 17 12.8
2015-Mar-27 00:20 332 3 gusting 10 12.8
2015-Mar-27 00:10 341 3 gusting 14 12.8
2015-Mar-27 00:00 297 3 gusting 8 12.8
2015-Mar-26 23:50 298 2 gusting 11 13.3
2015-Mar-26 23:40 272 1 gusting 5 12.8
2015-Mar-26 23:30 289 1 gusting 4 12.2
2015-Mar-26 23:20 276 0 gusting 4 11.7
2015-Mar-26 23:10 10.0
2015-Mar-26 23:00 074 0 gusting 0 10.0
2015-Mar-26 22:50 216 1 gusting 5 10.6
2015-Mar-26 22:40 241 0 gusting 5 11.1
2015-Mar-26 22:20 162 0 gusting 3 11.7
2015-Mar-26 22:00 141 0 gusting 2 10.6
2015-Mar-26 21:50 099 0 gusting 4 10.6
2015-Mar-26 21:40 135 11.7
2015-Mar-26 21:30 031 0 gusting 1 11.7
2015-Mar-26 21:20 060 1 gusting 2 11.7
2015-Mar-26 21:10 251 2 gusting 8 13.3
2015-Mar-26 21:00 269 0 gusting 4 12.2
2015-Mar-26 20:50 038 1 gusting 7 11.7
2015-Mar-26 20:40 065 2 gusting 6 10.6
2015-Mar-26 20:30 061 1 gusting 6 11.1
2015-Mar-26 20:20 114 0 gusting 5 11.1
2015-Mar-26 20:10 11.1
2015-Mar-26 20:00 11.1
2015-Mar-26 19:50 252 0 gusting 1 11.1
2015-Mar-26 19:40 248 1 gusting 2 11.7
2015-Mar-26 19:30 236 1 gusting 4 11.7
2015-Mar-26 19:20 195 1 gusting 6 12.2
2015-Mar-26 19:10 202 13.3
2015-Mar-26 19:00 13.9
2015-Mar-26 18:50 13.3
2015-Mar-26 18:40 13.3
2015-Mar-26 18:30 163 0 gusting 1 13.3
2015-Mar-26 18:20 144 1 gusting 2 13.9
2015-Mar-26 18:10 172 0 gusting 3 15.0
2015-Mar-26 18:00 212 1 gusting 2 15.6
2015-Mar-26 17:50 252 3 gusting 7 15.6
2015-Mar-26 17:40 256 3 gusting 10 16.1
2015-Mar-26 17:30 270 4 gusting 8 16.1
2015-Mar-26 17:20 265 3 gusting 9 16.1
2015-Mar-26 17:10 284 2 gusting 8 16.1
2015-Mar-26 17:00 280 2 gusting 9 16.7
2015-Mar-26 16:50 286 2 gusting 7 16.7
2015-Mar-26 16:40 270 3 gusting 8 16.1
2015-Mar-26 16:30 301 3 gusting 6 16.7
2015-Mar-26 16:20 285 4 gusting 7 16.1
2015-Mar-26 16:10 268 6 gusting 11 16.7
2015-Mar-26 16:00 270 5 gusting 13 16.7
2015-Mar-26 15:50 271 4 gusting 11 16.7
2015-Mar-26 15:40 276 4 gusting 11 16.7
2015-Mar-26 15:30 271 5 gusting 11 16.7
2015-Mar-26 15:20 287 6 gusting 13 16.1
2015-Mar-26 15:10 269 4 gusting 13 16.1
2015-Mar-26 15:00 273 4 gusting 8 16.7
2015-Mar-26 14:50 260 4 gusting 9 16.1
2015-Mar-26 14:40 277 5 gusting 11 15.6
2015-Mar-26 14:30 286 6 gusting 11 15.6
2015-Mar-26 14:20 271 6 gusting 12 15.6
2015-Mar-26 14:10 270 6 gusting 13 15.6
2015-Mar-26 14:00 287 4 gusting 13 15.6
2015-Mar-26 13:50 281 4 gusting 9 15.6
2015-Mar-26 13:40 276 4 gusting 10 15.0
2015-Mar-26 13:30 280 5 gusting 10 15.0
2015-Mar-26 13:20 282 5 gusting 10 15.0
2015-Mar-26 13:10 285 6 gusting 10 15.0
2015-Mar-26 13:00 286 5 gusting 13 15.0
2015-Mar-26 12:50 283 6 gusting 10 15.0
2015-Mar-26 12:40 289 6 gusting 13 14.4
2015-Mar-26 12:30 301 6 gusting 10 14.4
2015-Mar-26 12:20 286 5 gusting 13 14.4
2015-Mar-26 12:10 280 5 gusting 10 14.4
2015-Mar-26 12:00 279 6 gusting 11 14.4
2015-Mar-26 11:50 277 6 gusting 13 13.9
2015-Mar-26 11:40 281 5 gusting 11 13.9
2015-Mar-26 11:30 295 5 gusting 10 13.9
2015-Mar-26 11:20 301 6 gusting 11 13.3
2015-Mar-26 11:10 298 5 gusting 11 13.3
2015-Mar-26 11:00 293 6 gusting 10 13.3
2015-Mar-26 10:50 271 5 gusting 11 13.3
2015-Mar-26 10:40 278 4 gusting 8 13.3
2015-Mar-26 10:30 262 5 gusting 8 13.3
2015-Mar-26 10:20 275 4 gusting 9 12.8
2015-Mar-26 10:10 283 3 gusting 11 12.8
2015-Mar-26 10:00 288 4 gusting 8 12.8
2015-Mar-26 09:50 286 3 gusting 8 12.2
2015-Mar-26 09:40 252 3 gusting 7 12.2
2015-Mar-26 09:30 250 3 gusting 8 11.7
2015-Mar-26 09:20 282 0 gusting 6 11.7
2015-Mar-26 09:10 119 0 gusting 2 11.7
2015-Mar-26 09:00 062 11.1
2015-Mar-26 08:50 11.1
2015-Mar-26 08:40 126 0 gusting 2 10.6
2015-Mar-26 08:30 113 0 gusting 2 10.0
2015-Mar-26 08:20 118 0 gusting 1 9.4
2015-Mar-26 08:10 9.4
2015-Mar-26 08:00 9.4
2015-Mar-26 07:50 8.3
2015-Mar-26 07:40 8.3
2015-Mar-26 07:30 7.8
2015-Mar-26 07:20 7.2
2015-Mar-26 07:10 119 0 gusting 1 6.7
2015-Mar-26 07:00 093 6.7
2015-Mar-26 06:50 6.7
2015-Mar-26 06:40 5.6
2015-Mar-26 06:30 5.6
2015-Mar-26 06:20 5.0
2015-Mar-26 06:10 4.4
2015-Mar-26 06:00 4.4
2015-Mar-26 05:50 4.4
2015-Mar-26 05:40 4.4
2015-Mar-26 05:30 4.4
2015-Mar-26 05:20 297 4.4
2015-Mar-26 05:10 5.6
2015-Mar-26 05:00 5.0
2015-Mar-26 04:50 075 5.6
2015-Mar-26 04:40 161 0 gusting 2 5.6
2015-Mar-26 04:30 231 0 gusting 3 6.1
2015-Mar-26 04:20 259 1 gusting 2 6.7
2015-Mar-26 04:10 338 4 gusting 6 7.8
2015-Mar-26 04:00 334 6 gusting 11 7.8
2015-Mar-26 03:50 334 6 gusting 13 7.8
2015-Mar-26 03:40 333 6 gusting 12 7.8
2015-Mar-26 03:30 335 6 gusting 12 7.8
2015-Mar-26 03:20 335 6 gusting 13 7.8
2015-Mar-26 03:10 336 6 gusting 13 7.8
2015-Mar-26 03:00 334 6 gusting 12 7.8